Regional Weather Roundup
Issued by NWS

Home | Current Version | Previous Version | Text Only | Print | Product List | Glossary On
Versions: 1 2 3 4 5 6 7 8 9 10 11 12 13 14 15 16 17 18 19 20 21 22 23 24 25 26 27 28 29 30 31 32 33 34 35 36 37 38 39 40 41 42 43 44 45 46 47 48 49 50
000
ASUS46 KLOX 122213
RWRCA

SOUTHERN CALIFORNIA WEATHER ROUNDUP
NATIONAL WEATHER SERVICE OXNARD CALIFORNIA
200 PM PST FRI FEB 12 2016

NOTE: "FAIR" INDICATES FEW OR NO CLOUDS BELOW 12,000 FEET WITH NO
SIGNIFICANT WEATHER AND/OR OBSTRUCTIONS TO VISIBILITY.

  -  STATIONS PRECEEDED BY AN ASTERISK (*) ARE NOT NWS OR FAA
     STATIONS AND ARE NOT SUBJECT TO NWS AND FAA QUALITY CONTROL.

CAZ041-042-087-122300-
LA AND ORANGE COUNTY COASTAL AREAS


CITY           SKY/WX    TMP DP  RH WIND       PRES   REMARKS
L.A. DOWNTOWN  SUNNY     84  45  25 W3        30.02F
L.A. AIRPORT   PTSUNNY   73  41  31 W10       30.04F
LONG BEACH     SUNNY     79  42  26 S7        30.03F

CITY           SKY/WX    TMP DP  RH WIND       PRES   REMARKS
FULLERTON      SUNNY     85  36  17 VRB7      30.01F
HAWTHORNE      SUNNY     76  41  28 W10       30.04F
*LOS ALAMITOS  SUNNY     77  44  29 SW10      30.03F
*REDONDO BEACH   N/A     71  58  62 CALM      30.04F
SANTA ANA      MOSUNNY   76  47  35 SW6       30.03F
STA MONICA APT SUNNY     72  42  34 W7        30.04F
TORRANCE       MOSUNNY   75  55  50 NW14      30.04F
*UCLA            N/A     79  36  21 S6        30.01F

$$

CAZ547-548-048-122300-
LA COUNTY VALLEYS AND INLAND EMPIRE


CITY           SKY/WX    TMP DP  RH WIND       PRES   REMARKS
BURBANK        SUNNY     84  29  13 CALM      30.03F
VAN NUYS       SUNNY     85  33  15 CALM      30.04F

CITY           SKY/WX    TMP DP  RH WIND       PRES   REMARKS
CORONA AIRPORT CLEAR     87  37  17 SW6       30.03F
*CHATSWORTH      N/A     88  33  14 CALM      30.04F
CHINO          MOSUNNY   87  28  12 VRB3      30.04F
MARCH AFB      SUNNY     84  12   6 VRB2      30.06F
*NORTHRIDGE      N/A     86  25  10 SE3         N/A
ONTARIO        MOSUNNY   85  20   9 CALM      30.04F
*PASADENA        N/A     86  34  15 CALM        N/A
POMONA         SUNNY     82  28  14 W6        30.14R
RIVERSIDE      SUNNY     87  19   8 W3        30.03F
SAN BERNARDINO SUNNY     86  21   9 CALM      30.04F
*SAN GABRIEL     N/A     86  29  13 S3        30.09F
*SAUGUS          N/A     82  28  14 S2          N/A
*WHITEMAN AP   NOT AVBL
*WOODLAND HILL   N/A     86  25  10 S2          N/A

$$

CAZ054-055-122300-
LA AND SAN BERNARDINO COUNTY MOUNTAINS


CITY           SKY/WX    TMP DP  RH WIND       PRES   REMARKS
*BIG BEAR AIRP CLEAR     61  12  15 SW6       30.31F
SANDBERG       SUNNY     71  27  19 NE8       30.24F
*WARM SPRINGS    N/A     82  61  48 NE3         N/A

$$

CAZ028-029-059-060-099-122300-
ANTELOPE VALLEY AND SURROUNDING AREAS


CITY           SKY/WX    TMP DP  RH WIND       PRES   REMARKS
LANCASTER      SUNNY     72  25  17 CALM      30.16F
PALMDALE       SUNNY     71  25  17 VRB3      30.17F
*POPPY PARK      N/A     74  35  23 SE2         N/A

CITY           SKY/WX    TMP DP  RH WIND       PRES   REMARKS
29 PALMS       SUNNY     77  16  10 VRB6      30.18F
BARSTOW/DAGGET SUNNY     74  24  15 E3        30.15F
BISHOP         PTSUNNY   68  18  14 CALM      30.20F
CHINA LAKE     MOSUNNY   73  25  16 E5        30.15F
EDWARDS AFB    PTSUNNY   70  24  17 CALM      30.14F
MOJAVE         SUNNY     70  27  19 CALM      30.18F
NEEDLES        SUNNY     81  27  14 N6        30.09F
VICTORVILLE    SUNNY     72  19  14 CALM      30.17F

$$

CAZ039-040-122300-
VENTURA AND SANTA BARBARA COUNTY COAST


CITY           SKY/WX    TMP DP  RH WIND       PRES   REMARKS
CAMARILLO      SUNNY     76  45  33 W8        30.04F
NWS OXNARD       N/A     76  40  27 CALM      30.03F
OXNARD AIRPORT SUNNY     72  47  40 W9        30.04F
*POINT MUGU    MOSUNNY   71  43  36 W6        30.06F
SBA APT/GOLETA SUNNY     74  44  34 W9        30.04F
*SANTA BARBARA   N/A     80  37  20 CALM      30.12S
*VENTURA         N/A     77  45  31 SW3       30.02F

$$

CAZ044-045-122300-
VENTURA COUNTY VALLEYS


CITY           SKY/WX    TMP DP  RH WIND       PRES   REMARKS
*SIMI VALLEY     N/A     85  42  21 SW3       29.98F
*WESTLAKE VILL   N/A     85  45  24 N1        30.03F
*OJAI            N/A     87  43  21 W3        29.98S
*FILLMORE        N/A     86  50  28 SW2       29.91F

$$

CAZ053-122300-
VENTURA COUNTY MOUNTAINS


CITY           SKY/WX    TMP DP  RH WIND       PRES   REMARKS
*LOCKWOOD VLY    N/A     70   7   8 MISG        N/A
*ROSE VALLEY     N/A     81  27  13 MISG        N/A

$$

CAZ034-035-036-122300-
CENTRAL COAST AND SANTA YNEZ VALLEY


CITY           SKY/WX    TMP DP  RH WIND       PRES   REMARKS
SAN LUIS OBISP MOSUNNY   80  56  43 NW14      30.05F
SANTA MARIA    MOSUNNY   77  48  35 NW8       30.07F

CITY           SKY/WX    TMP DP  RH WIND       PRES   REMARKS
*CAL POLY SLO    N/A     77  57  50 N12G20      N/A
*SANTA YNEZ    FAIR      81  41  24 W8        30.06F

$$

CAZ037-038-051-122300-
SAN LUIS OBISPO COUNTY INTERIOR AND CUYAMA VALLEY


CITY           SKY/WX    TMP DP  RH WIND       PRES   REMARKS
*CUYAMA          N/A     71  39  31 NE8       30.07F
PASO ROBLES    PTSUNNY   71  53  52 CALM      30.12F

$$

CAZ032-033-061-122300-
SOUTHERN DESERTS


CITY           SKY/WX    TMP DP  RH WIND       PRES   REMARKS
BLYTHE         SUNNY     82  26  13 E3        30.06F
IMPERIAL       SUNNY     84  26  12 W5        30.03F
PALM SPRINGS   SUNNY     85  25  11 VRB3      30.06F
THERMAL        SUNNY     87  27  11 VRB5      30.01F

$$

ELSEWHERE ACROSS THE WESTERN UNITED STATES AND MEXICO


CITY           SKY/WX    TMP DP  RH WIND       PRES   REMARKS
DEATH VALLEY,    N/A     78  31  18 CALM        N/A
DENVER, CO     MOSUNNY   49  32  52 E9        30.24S
GRAND CANYON,  SUNNY     68   8   9 NW5       30.33F
HONOLULU, HI   MOSUNNY   82  64  54 SE16      30.01
KAHULUI, MAUI  MOSUNNY   82  63  51 E13G26    30.00F
LAKE TAHOE, CA MOSUNNY   50  30  46 N8        30.28F
LAS VEGAS, NV  MOSUNNY   72  22  15 CALM      30.13F
MAMMOTH LAKES, FAIR      57  10  15 E5        30.32F
MEXICO CITY, M SUNNY     72  12  10 NW5       30.27F
PHOENIX, AZ    MOSUNNY   84  21  10 VRB3      30.04F
PORTLAND, OR   CLOUDY    52  51  97 SE10      30.19S
RENO, NV       PTSUNNY   61  29  29 CALM      30.22F
SALT LAKE CITY LGT SNOW  31  27  85 VRB3      30.37F FOG
SAN DIEGO, CA  MOSUNNY   79  32  18 NW3       30.04F
SAN FRANCISCO, PTSUNNY   66  53  63 W18       30.19F
SAN JOSE, CA   PTSUNNY   68  49  50 NW7       30.17F
SEATTLE, WA    MOSUNNY   56  45  66 S12       30.14S
TIJUANA, MEX   SUNNY     79  28  15 W10       30.06F

$$

STATION/POSITION TIME  TEMP    WIND        PRES    VSBY  WAVE
                       AIR SEA DIR/SP/G                  HT/PER
                 (UTC) (F)     (DEG/KT/KT) (MB)    (MI)  (FT/S)
POINT ARGUELLO B NOT AVBL
WEST SANTA BARBA 2150   58 59  310/ 14/ 17 1017.5F        13/19
POINT CONCEPTION NOT AVBL
EAST SANTA BARBA 2200   60 60  270/  6/ 10 1018.0F
SANTA MONICA BAY 2150   62 62  250/  6/  8 1017.8F         4/12


USA.gov is the U.S. government's official web portal to all federal, state and local government web resources and services.